GFSNIL_prec_cloud_159.txt.gz
Cloud_Cover
5 2 5 67 82 39 78 64 100 5 3 6 29 67 18 0 5 3 0 5 5 5
5 4 17 55 2 5 14 99 96 16 38 96 100 45 90 14 8 2 22 43 12 5
22 5 5 78 13 28 60 5 70 63 1 38 51 95 20 44 81 9 2 87 100 9
80 22 2 8 4 4 9 97 14 10 37 86 99 41 1 0 5 41 69 43 13 21
69 92 50 0 0 5 4 1 0 2 0 0 6 0 10 3 5 52 22 3 34 24
66 100 100 86 15 37 33 8 11 40 1 29 59 90 2 0 0 0 1 1 50 40
52 83 86 98 58 43 62 57 35 5 2 15 17 71 83 63 27 1 75 96 4 5
100 38 88 100 85 0 60 39 24 0 0 0 2 7 13 6 24 29 3 0 6 100
83 84 5 3 6 5 0 0 0 0 0 0 0 16 0 0 34 6 4 3 0 4
100 49 34 31 47 86 6 4 0 0 0 5 3 3 0 0 0 0 2 5 26 5
100 100 98 58 20 100 100 97 5 3 0 0 0 4 17 0 0 6 1 15 70 91
100 100 100 64 37 42 54 100 34 36 23 25 13 100 100 55 15 11 2 1 4 5
100 100 100 100 93 50 84 56 75 100 69 100 84 99 100 53 5 13 7 5 0 34
100 100 100 100 100 100 84 85 100 100 100 100 84 95 80 99 24 39 59 83 40 81

GFSNIL_prec_cloud_162.txt.gz
Cloud_Cover
1 0 0 0 0 92 37 34 52 9 93 44 0 0 52 54 51 11 98 5 0 3
0 0 0 0 4 3 2 100 99 8 0 60 4 0 29 49 21 5 4 99 6 5
0 0 2 9 0 0 0 40 43 23 0 1 0 63 17 2 5 38 3 5 100 24
0 0 0 20 5 0 0 0 32 5 99 56 10 0 1 0 5 1 46 30 100 93
17 0 0 0 68 6 0 86 100 89 100 100 4 4 49 8 0 0 0 95 30 100
1 4 45 0 0 2 1 88 100 100 58 8 0 0 0 0 0 0 5 5 81 0
100 100 100 87 27 40 0 0 18 74 2 0 0 0 2 2 1 0 0 0 0 0
100 100 100 100 100 100 22 0 0 1 0 0 0 0 0 28 22 5 0 0 0 0
100 100 100 100 100 100 5 0 5 0 0 0 0 5 0 13 0 4 3 0 0 0
100 100 100 100 100 100 6 80 8 12 5 0 0 0 0 8 8 0 1 5 4 0
100 100 100 100 100 100 58 40 100 99 66 6 3 96 40 1 34 0 0 4 5 4
100 100 100 100 100 100 64 50 100 100 100 81 7 97 100 80 6 0 0 0 0 2
100 100 100 100 100 100 88 53 52 100 100 100 100 100 99 100 99 67 7 5 15 79
100 100 100 100 100 100 100 75 32 92 87 100 76 98 100 100 100 100 98 100 64 59

GFSNIL_prec_cloud_165.txt.gz
Cloud_Cover
5 0 0 0 0 13 69 1 71 11 5 1 5 0 0 0 8 100 100 86 32 25
5 0 0 0 0 0 5 92 25 19 0 5 2 0 0 0 0 8 5 3 66 3
4 5 0 0 2 5 12 3 0 20 39 5 2 0 0 43 5 5 0 5 5 2
4 5 2 0 7 4 0 0 0 73 77 5 6 2 0 90 10 5 0 0 20 3
6 77 92 95 2 5 4 4 22 26 0 0 1 5 0 50 35 5 0 0 0 5
85 100 100 69 100 39 5 92 26 8 1 52 13 5 0 0 4 5 1 0 2 5
100 100 100 30 54 100 94 6 100 38 58 46 97 26 2 5 0 1 4 0 0 3
100 100 100 100 100 100 100 96 34 100 80 96 5 5 0 0 0 0 0 4 3 5
100 100 100 100 100 100 100 100 100 2 55 100 17 5 0 0 0 1 1 0 4 86
100 100 100 100 100 100 100 100 100 76 0 0 2 1 0 0 8 9 5 5 5 3
100 100 100 100 100 100 100 100 100 100 90 5 70 100 100 32 3 92 82 3 5 31
100 100 100 100 100 100 100 100 100 100 100 100 100 100 100 87 13 5 5 1 5 5
73 100 100 100 100 100 100 100 100 100 100 100 100 100 100 100 100 97 14 5 64 100
26 85 100 100 100 100 100 100 100 100 100 100 100 100 100 100 100 100 98 100 100 93

GFSNIL_prec_cloud_168.txt.gz
Cloud_Cover
10 5 5 0 22 13 0 0 0 5 0 5 1 5 5 1 0 15 100 100 100 82
20 5 5 0 0 89 7 0 0 1 5 6 5 4 0 0 0 0 99 99 100 100
100 18 90 9 1 5 2 0 0 6 4 82 88 2 1 0 0 2 1 21 5 5
97 76 100 99 5 2 14 4 18 66 0 6 53 0 0 0 0 2 3 13 5 0
95 100 100 100 100 99 2 8 4 5 1 5 2 2 0 0 0 2 47 1 0 0
100 100 100 100 100 100 100 74 5 5 0 67 55 2 18 3 0 0 5 0 0 0
100 100 100 100 100 99 98 100 100 80 14 26 4 2 0 0 0 0 5 5 0 0
100 100 100 100 100 100 94 100 100 100 98 100 34 38 10 0 0 0 4 5 2 0
100 100 100 100 100 100 100 100 100 100 100 100 100 100 100 30 5 0 0 2 0 16
100 100 100 100 100 100 100 100 100 100 100 100 100 100 96 86 6 1 0 0 0 26
100 100 100 100 100 100 100 100 100 100 100 100 100 100 100 100 100 77 5 0 2 0
100 100 100 100 100 100 100 100 100 100 100 100 100 100 100 95 88 100 13 0 31 16
88 94 100 100 100 100 100 100 100 100 100 100 100 100 100 100 100 100 53 24 98 100
72 97 73 100 100 100 100 99 100 100 100 100 100 100 100 100 100 100 100 100 100 100

GFSNIL_prec_cloud_171.txt.gz
Cloud_Cover
100 81 100 2 5 5 5 4 0 0 1 3 66 3 99 100 98 5 5 5 25 83
100 93 82 3 1 5 5 5 1 0 4 0 3 0 0 90 100 96 29 96 100 100
100 100 100 71 48 41 27 23 2 0 1 0 58 3 0 0 0 27 1 4 97 100
64 55 100 100 100 100 100 77 19 1 0 0 26 100 5 5 2 0 0 2 98 80
20 81 96 100 100 100 100 100 100 95 47 3 0 0 0 0 3 0 0 0 5 5
46 94 100 100 89 93 100 100 100 100 89 27 57 30 0 2 1 0 0 10 1 5
93 100 100 100 100 86 89 98 100 100 100 100 100 73 21 5 25 5 0 2 3 49
83 100 100 99 100 100 100 100 100 100 100 100 100 76 26 55 5 5 5 0 0 8
5 100 100 100 100 100 100 100 100 100 100 100 100 100 100 70 56 23 73 6 2 1
21 43 100 100 100 100 100 100 100 100 100 100 100 100 100 100 88 73 59 3 0 0
88 89 100 100 100 100 100 100 100 100 100 100 100 100 100 100 100 98 6 5 0 0
100 100 100 100 100 100 100 100 100 100 100 100 100 100 100 100 100 100 96 6 5 0
21 82 99 100 100 100 100 100 100 100 100 98 100 100 100 100 100 100 100 100 64 100
25 16 21 90 100 100 100 100 100 100 100 100 100 100 100 100 100 100 100 100 100 100

GFSNIL_prec_cloud_174.txt.gz
Cloud_Cover
68 36 90 14 0 0 4 6 3 0 0 0 80 100 100 100 100 100 99 100 99 99
15 8 49 100 62 5 8 8 5 3 0 0 0 87 100 59 100 100 100 100 99 85
24 20 100 97 100 100 100 100 39 3 0 0 0 0 66 100 51 100 100 100 20 5
97 6 97 68 100 100 100 100 100 100 98 1 0 4 51 20 88 4 68 100 100 100
10 7 83 98 100 100 100 100 100 100 100 70 2 3 27 75 2 0 0 5 4 2
5 3 70 100 85 98 100 100 100 100 100 100 72 7 3 0 1 2 5 2 0 0
32 4 25 99 100 100 100 100 100 100 98 100 100 93 36 55 74 32 12 2 0 1
37 2 77 100 100 100 100 100 100 100 100 100 100 100 100 95 93 5 4 5 0 0
5 2 54 100 100 100 100 100 100 100 96 91 100 100 100 100 100 100 16 6 5 0
32 10 5 99 100 100 100 93 100 100 100 100 98 100 100 100 100 100 100 96 53 5
99 100 100 100 100 100 100 100 100 100 100 100 100 92 99 98 100 99 100 100 100 92
100 100 100 100 100 100 100 100 100 100 100 98 94 71 100 100 92 100 71 100 100 100
93 97 100 100 100 100 92 96 100 100 100 100 96 99 100 100 99 100 100 100 100 100
45 42 79 100 53 88 88 98 100 100 100 100 100 100 100 100 100 100 100 100 100 100